User: anonymous   Login
Location: Ariel
(45.9570°N, 122.5700°W)
Time: 06:58:06
(UTC-07:00)
Language:

deb Explorer IX - Orbit

View from above orbital plane
View from above orbital plane
View from above satellite
View from above satellite

Ground track
Ground track

The orbit data is extracted from the following two-line orbital elements,

1    85U 61004C   19203.51256259 +.00000454 +00000-0 +11777-3 0  9993
2    85 038.7742 267.8756 0397363 095.5698 269.0491 14.19917889884031
Epoch (UTC): 22 July 2019 12:18:05
Eccentricity: 0.0397363
inclination: 38.7742°
perigee height: 539 km
apogee height: 1112 km
right ascension of ascending node: 267.8756°
argument of perigee: 95.5698°
revolutions per day: 14.19917889
mean anomaly at epoch: 269.0491°
orbit number at epoch: 88403

The dashed part of the orbit path shows where the satellite is in the earth's shadow,  

DLR